| time (UTC) | temp C | wind direction | speed KPH | gust KPH | rain 1hr cm | rain 24hr cm | rain mn cm | humidity % | barometer mb |
| 20260506185042 | 12 | 252 | 6.4 | 9.7 | 0.00 | 0.99 | 0.99 | 58 | 1012.5 |
| 20260506184539 | 12 | 256 | 1.6 | 3.2 | 0.00 | 0.99 | 0.99 | 58 | 1012.6 |
| 20260506184036 | 11 | 261 | 4.8 | 8.0 | 0.00 | 0.99 | 0.99 | 57 | 1012.7 |
| 20260506183532 | 12 | 272 | 4.8 | 4.8 | 0.00 | 0.99 | 0.99 | 55 | 1012.8 |
| 20260506183029 | 12 | 315 | 6.4 | 9.7 | 0.00 | 0.99 | 0.99 | 56 | 1012.6 |
| 20260506182526 | 13 | 3 | 8.0 | 11.3 | 0.00 | 0.99 | 0.99 | 56 | 1012.2 |
| 20260506182023 | 13 | 323 | 4.8 | 4.8 | 0.00 | 0.99 | 0.99 | 56 | 1012.2 |
| 20260506181521 | 12 | 217 | 1.6 | 3.2 | 0.00 | 0.99 | 0.99 | 56 | 1012.3 |
| 20260506181017 | 12 | 285 | 4.8 | 4.8 | 0.00 | 0.99 | 0.99 | 56 | 1012.3 |
| 20260506180514 | 12 | 259 | 4.8 | 4.8 | 0.00 | 0.99 | 0.99 | 57 | 1012.5 |
| 20260506180011 | 12 | 277 | 3.2 | 3.2 | 0.00 | 0.99 | 0.99 | 56 | 1012.2 |
| 20260506175507 | 12 | 282 | 4.8 | 4.8 | 0.00 | 0.99 | 0.99 | 56 | 1012.4 |
| 20260506175004 | 13 | 290 | 6.4 | 8.0 | 0.00 | 0.99 | 0.99 | 56 | 1012.4 |
| 20260506174503 | 12 | 322 | 4.8 | 4.8 | 0.00 | 0.99 | 0.99 | 57 | 1012.3 |
| 20260506173958 | 12 | 266 | 8.0 | 11.3 | 0.00 | 0.99 | 0.99 | 56 | 1012.4 |
| 20260506173456 | 12 | 287 | 3.2 | 3.2 | 0.00 | 0.99 | 0.99 | 59 | 1012.5 |
| 20260506172952 | 12 | 12 | 9.7 | 12.9 | 0.00 | 0.99 | 0.99 | 58 | 1012.1 |
| 20260506172450 | 13 | 3 | 9.7 | 12.9 | 0.00 | 0.99 | 0.99 | 58 | 1012.0 |
| 20260506171946 | 13 | 257 | 0.0 | 0.0 | 0.00 | 0.99 | 0.99 | 60 | 1012.2 |
| 20260506171444 | 12 | 63 | 4.8 | 4.8 | 0.00 | 0.99 | 0.99 | 59 | 1012.2 |
| 20260506170941 | 12 | 293 | 4.8 | 4.8 | 0.00 | 0.99 | 0.99 | 59 | 1012.1 |
| 20260506170437 | 12 | 250 | 4.8 | 4.8 | 0.00 | 0.99 | 0.99 | 60 | 1011.9 |
| 20260506165930 | 12 | 289 | 3.2 | 3.2 | 0.00 | 0.99 | 0.99 | 59 | 1012.2 |
| 20260506165429 | 12 | 326 | 4.8 | 4.8 | 0.00 | 0.99 | 0.99 | 60 | 1012.2 |
| 20260506164924 | 12 | 65 | 6.4 | 8.0 | 0.00 | 0.99 | 0.99 | 63 | 1012.3 |
| 20260506164421 | 12 | 344 | 4.8 | 9.7 | 0.00 | 0.99 | 0.99 | 62 | 1012.3 |
| 20260506163914 | 12 | 266 | 4.8 | 8.0 | 0.00 | 0.99 | 0.99 | 61 | 1012.5 |
| 20260506163408 | 12 | 294 | 4.8 | 4.8 | 0.00 | 0.99 | 0.99 | 64 | 1012.5 |
| 20260506162903 | 11 | 30 | 8.0 | 12.9 | 0.00 | 0.99 | 0.99 | 63 | 1012.7 |
| 20260506162401 | 12 | 272 | 4.8 | 8.0 | 0.00 | 0.99 | 0.99 | 62 | 1012.5 |
| 20260506161858 | 12 | 290 | 4.8 | 4.8 | 0.00 | 0.99 | 0.99 | 61 | 1012.3 |
| 20260506161356 | 12 | 279 | 1.6 | 3.2 | 0.00 | 0.99 | 0.99 | 56 | 1012.2 |
| 20260506160853 | 12 | 332 | 8.0 | 9.7 | 0.00 | 0.99 | 0.99 | 63 | 1012.3 |
| 20260506160350 | 12 | 262 | 3.2 | 4.8 | 0.00 | 0.99 | 0.99 | 66 | 1012.0 |
| 20260506155848 | 11 | 297 | 4.8 | 8.0 | 0.00 | 0.99 | 0.99 | 63 | 1012.1 |
| 20260506155345 | 11 | 262 | 3.2 | 3.2 | 0.00 | 0.99 | 0.99 | 63 | 1012.0 |
| 20260506153502 | 11 | 260 | 3.2 | 3.2 | 0.00 | 0.99 | 0.99 | 68 | 1011.6 |
| 20260506153000 | 11 | 254 | 1.6 | 1.6 | 0.00 | 0.99 | 0.99 | 71 | 1011.7 |
| 20260506152456 | 11 | 260 | 3.2 | 3.2 | 0.00 | 0.99 | 0.99 | 70 | 1011.9 |
| 20260506151955 | 10 | 298 | 3.2 | 4.8 | 0.00 | 0.99 | 0.99 | 72 | 1011.9 |
| 20260506151452 | 10 | 235 | 6.4 | 9.7 | 0.00 | 0.99 | 0.99 | 70 | 1011.7 |
| 20260506150949 | 10 | 299 | 4.8 | 4.8 | 0.00 | 0.99 | 0.99 | 73 | 1011.9 |
| 20260506150445 | 10 | 302 | 4.8 | 8.0 | 0.00 | 0.99 | 0.99 | 71 | 1011.9 |
| 20260506145942 | 10 | 259 | 1.6 | 3.2 | 0.00 | 0.99 | 0.99 | 72 | 1011.7 |
| 20260506145438 | 10 | 284 | 3.2 | 4.8 | 0.00 | 0.99 | 0.99 | 73 | 1011.5 |
| 20260506144936 | 10 | 273 | 1.6 | 1.6 | 0.00 | 0.99 | 0.99 | 73 | 1011.4 |
| 20260506144432 | 10 | 265 | 3.2 | 4.8 | 0.00 | 0.99 | 0.99 | 73 | 1011.3 |
| 20260506143931 | 10 | 272 | 4.8 | 4.8 | 0.00 | 0.99 | 0.99 | 73 | 1011.2 |
| 20260506143428 | 10 | 302 | 4.8 | 4.8 | 0.00 | 0.99 | 0.99 | 73 | 1011.2 |
| 20260506142926 | 9 | 335 | 4.8 | 8.0 | 0.00 | 0.99 | 0.99 | 74 | 1010.9 |
| 20260506142424 | 10 | 325 | 14.5 | 16.1 | 0.00 | 0.99 | 0.99 | 74 | 1011.2 |
| 20260506141921 | 9 | 268 | 3.2 | 3.2 | 0.00 | 0.99 | 0.99 | 76 | 1011.2 |
| 20260506141419 | 9 | 258 | 3.2 | 3.2 | 0.00 | 0.99 | 0.99 | 76 | 1010.8 |
| 20260506140918 | 8 | 284 | 3.2 | 3.2 | 0.00 | 0.99 | 0.99 | 77 | 1011.0 |
| 20260506140414 | 8 | 264 | 1.6 | 3.2 | 0.00 | 0.99 | 0.99 | 78 | 1011.2 |
| 20260506135911 | 8 | 277 | 4.8 | 4.8 | 0.00 | 0.99 | 0.99 | 77 | 1011.0 |
| 20260506135408 | 8 | 259 | 3.2 | 4.8 | 0.00 | 0.99 | 0.99 | 80 | 1011.0 |
| 20260506134904 | 7 | 269 | 3.2 | 3.2 | 0.00 | 0.99 | 0.99 | 82 | 1011.2 |
| 20260506134400 | 7 | 273 | 1.6 | 3.2 | 0.00 | 0.99 | 0.99 | 83 | 1010.8 |
| 20260506133857 | 7 | 262 | 1.6 | 1.6 | 0.00 | 0.99 | 0.99 | 84 | 1010.9 |
| 20260506133354 | 7 | 279 | 4.8 | 4.8 | 0.00 | 0.99 | 0.99 | 86 | 1010.8 |
| 20260506132850 | 7 | 257 | 1.6 | 1.6 | 0.00 | 0.99 | 0.99 | 88 | 1011.0 |
| 20260506132348 | 6 | 263 | 4.8 | 8.0 | 0.00 | 0.99 | 0.99 | 89 | 1010.9 |
| 20260506131846 | 6 | 254 | 0.0 | 0.0 | 0.00 | 0.99 | 0.99 | 91 | 1010.8 |
| 20260506131342 | 6 | 256 | 1.6 | 1.6 | 0.00 | 0.99 | 0.99 | 91 | 1010.9 |
| 20260506130840 | 6 | 252 | 1.6 | 1.6 | 0.00 | 0.99 | 0.99 | 92 | 1010.9 |
| 20260506130336 | 6 | 268 | 1.6 | 3.2 | 0.00 | 0.99 | 0.99 | 93 | 1010.5 |
| 20260506125834 | 6 | 259 | 1.6 | 1.6 | 0.00 | 0.99 | 0.99 | 93 | 1010.7 |
| 20260506125332 | 6 | 260 | 1.6 | 1.6 | 0.00 | 0.99 | 0.99 | 94 | 1010.3 |
| 20260506124830 | 6 | 258 | 0.0 | 1.6 | 0.00 | 0.99 | 0.99 | 94 | 1010.2 |
| 20260506124326 | 6 | 266 | 3.2 | 3.2 | 0.00 | 0.99 | 0.99 | 94 | 1010.2 |
| 20260506123824 | 6 | 278 | 3.2 | 4.8 | 0.00 | 0.99 | 0.99 | 95 | 1010.4 |
| 20260506123322 | 6 | 248 | 0.0 | 1.6 | 0.00 | 0.99 | 0.99 | 95 | 1010.1 |
| 20260506122819 | 6 | 298 | 3.2 | 4.8 | 0.00 | 0.99 | 0.99 | 95 | 1010.0 |
| 20260506122316 | 6 | 270 | 1.6 | 1.6 | 0.00 | 0.99 | 0.99 | 96 | 1009.9 |
| 20260506121814 | 6 | 258 | 1.6 | 3.2 | 0.00 | 0.99 | 0.99 | 96 | 1009.8 |
| 20260506121311 | 6 | 273 | 1.6 | 3.2 | 0.00 | 0.99 | 0.99 | 96 | 1009.7 |
| 20260506120808 | 6 | 260 | 0.0 | 1.6 | 0.00 | 0.99 | 0.99 | 96 | 1009.7 |
| 20260506120306 | 6 | 304 | 3.2 | 3.2 | 0.00 | 0.99 | 0.99 | 96 | 1009.7 |
| 20260506115803 | 6 | 253 | 3.2 | 3.2 | 0.00 | 0.99 | 0.99 | 97 | 1009.5 |
| 20260506115306 | 5 | 261 | 1.6 | 1.6 | 0.00 | 0.99 | 0.99 | 97 | 1009.4 |
| 20260506114759 | 5 | 258 | 1.6 | 1.6 | 0.00 | 0.99 | 0.99 | 97 | 1009.4 |
| 20260506114257 | 5 | 282 | 3.2 | 3.2 | 0.00 | 0.99 | 0.99 | 97 | 1009.5 |
| 20260506113755 | 5 | 259 | 0.0 | 0.0 | 0.00 | 0.99 | 0.99 | 97 | 1009.3 |
| 20260506113252 | 5 | 257 | 0.0 | 0.0 | 0.00 | 0.99 | 0.99 | 97 | 1009.4 |
| 20260506112748 | 5 | 257 | 1.6 | 1.6 | 0.00 | 0.99 | 0.99 | 97 | 1009.6 |
| 20260506112246 | 5 | 256 | 0.0 | 0.0 | 0.00 | 0.99 | 0.99 | 97 | 1009.6 |
| 20260506111743 | 5 | 258 | 1.6 | 1.6 | 0.00 | 0.99 | 0.99 | 97 | 1009.7 |
| 20260506111241 | 6 | 256 | 0.0 | 0.0 | 0.00 | 0.99 | 0.99 | 97 | 1009.9 |
| 20260506110738 | 6 | 259 | 1.6 | 1.6 | 0.00 | 0.99 | 0.99 | 97 | 1009.4 |
| 20260506110236 | 6 | 259 | 1.6 | 1.6 | 0.00 | 0.99 | 0.99 | 97 | 1009.1 |
| 20260506105732 | 6 | 262 | 0.0 | 1.6 | 0.00 | 0.99 | 0.99 | 97 | 1008.4 |
| 20260506105229 | 6 | 258 | 0.0 | 1.6 | 0.00 | 0.99 | 0.99 | 97 | 1008.7 |
| 20260506104727 | 6 | 260 | 0.0 | 0.0 | 0.00 | 0.99 | 0.99 | 97 | 1008.8 |
| 20260506104224 | 6 | 266 | 0.0 | 0.0 | 0.00 | 0.99 | 0.99 | 97 | 1009.0 |
| 20260506103721 | 6 | 251 | 0.0 | 0.0 | 0.00 | 0.99 | 0.99 | 97 | 1009.1 |
| 20260506103218 | 6 | 273 | 1.6 | 1.6 | 0.00 | 0.99 | 0.99 | 97 | 1009.1 |
| 20260506102716 | 6 | 283 | 4.8 | 9.7 | 0.00 | 0.99 | 0.99 | 97 | 1008.6 |
| 20260506102214 | 6 | 353 | 4.8 | 4.8 | 0.00 | 0.99 | 0.99 | 97 | 1008.6 |
| 20260506101710 | 6 | 288 | 3.2 | 3.2 | 0.00 | 0.99 | 0.99 | 97 | 1008.7 |
| 20260506101207 | 6 | 269 | 0.0 | 1.6 | 0.00 | 0.99 | 0.99 | 97 | 1008.7 |
| 20260506100705 | 6 | 267 | 4.8 | 9.7 | 0.00 | 0.99 | 0.99 | 97 | 1008.1 |
| 20260506100203 | 6 | 266 | 3.2 | 3.2 | 0.00 | 0.99 | 0.99 | 97 | 1007.9 |
| 20260506095701 | 6 | 263 | 0.0 | 0.0 | 0.13 | 0.99 | 0.99 | 97 | 1008.0 |
| 20260506095158 | 6 | 260 | 0.0 | 0.0 | 0.13 | 0.99 | 0.99 | 97 | 1007.6 |
| 20260506094655 | 6 | 17 | 4.8 | 4.8 | 0.00 | 0.97 | 0.97 | 97 | 1007.6 |
| 20260506094153 | 6 | 354 | 8.0 | 9.7 | 0.00 | 0.97 | 0.97 | 97 | 1007.6 |
| 20260506093651 | 6 | 288 | 4.8 | 4.8 | 0.00 | 0.97 | 0.97 | 97 | 1007.4 |
| 20260506093148 | 6 | 57 | 4.8 | 4.8 | 0.00 | 0.97 | 0.97 | 97 | 1007.3 |
| 20260506092646 | 6 | 303 | 6.4 | 8.0 | 0.00 | 0.97 | 0.97 | 97 | 1007.8 |
| 20260506092143 | 6 | 6 | 4.8 | 9.7 | 0.00 | 0.97 | 0.97 | 97 | 1007.7 |
| 20260506091641 | 6 | 349 | 4.8 | 8.0 | 0.00 | 0.97 | 0.97 | 97 | 1008.1 |
| 20260506091138 | 6 | 318 | 4.8 | 4.8 | 0.18 | 0.97 | 0.97 | 97 | 1008.1 |
| 20260506090636 | 6 | 5 | 4.8 | 8.0 | 0.18 | 0.97 | 0.97 | 97 | 1008.5 |
| 20260506090132 | 6 | 270 | 3.2 | 3.2 | 0.00 | 0.94 | 0.94 | 97 | 1008.8 |
| 20260506085629 | 6 | 335 | 1.6 | 4.8 | 0.13 | 0.94 | 0.94 | 97 | 1008.6 |
| 20260506085125 | 6 | 312 | 3.2 | 3.2 | 0.13 | 0.94 | 0.94 | 97 | 1008.6 |
| 20260506084622 | 6 | 261 | 1.6 | 1.6 | 0.18 | 0.91 | 0.91 | 97 | 1008.6 |
| 20260506084119 | 6 | 286 | 3.2 | 3.2 | 0.18 | 0.91 | 0.91 | 97 | 1008.6 |
| 20260506083616 | 6 | 267 | 1.6 | 1.6 | 0.00 | 0.89 | 0.89 | 97 | 1008.5 |
| 20260506083113 | 6 | 323 | 1.6 | 1.6 | 0.00 | 0.89 | 0.89 | 97 | 1008.6 |
| 20260506082610 | 6 | 3 | 4.8 | 8.0 | 0.13 | 0.89 | 0.89 | 97 | 1008.1 |
| 20260506082105 | 6 | 276 | 3.2 | 4.8 | 0.13 | 0.89 | 0.89 | 97 | 1008.3 |
| 20260506081604 | 6 | 259 | 0.0 | 0.0 | 0.00 | 0.86 | 0.86 | 97 | 1008.3 |
| 20260506081101 | 6 | 272 | 0.0 | 1.6 | 0.00 | 0.86 | 0.86 | 97 | 1008.0 |
| 20260506080559 | 6 | 295 | 1.6 | 3.2 | 0.00 | 0.86 | 0.86 | 97 | 1008.1 |
| 20260506073039 | 6 | 39 | 6.4 | 11.3 | 0.18 | 0.79 | 0.79 | 97 | 1008.5 |
| 20260506072536 | 6 | 285 | 1.6 | 3.2 | 0.30 | 0.79 | 0.79 | 97 | 1008.6 |
| 20260506072034 | 6 | 7 | 4.8 | 4.8 | 0.30 | 0.76 | 0.76 | 97 | 1008.3 |
| 20260506071531 | 6 | 27 | 4.8 | 8.0 | 0.30 | 0.76 | 0.76 | 97 | 1008.0 |
| 20260506071028 | 6 | 64 | 6.4 | 9.7 | 0.13 | 0.71 | 0.71 | 97 | 1007.9 |
| 20260506070526 | 6 | 288 | 1.6 | 1.6 | 0.30 | 0.71 | 0.71 | 97 | 1008.1 |
| 20260506062503 | 6 | 64 | 9.7 | 12.9 | 0.43 | 0.53 | 0.53 | 97 | 1008.1 |
| 20260506061959 | 7 | 84 | 6.4 | 11.3 | 0.48 | 0.51 | 0.51 | 97 | 1007.8 |
| 20260506061455 | 7 | 273 | 1.6 | 3.2 | 0.48 | 0.46 | 0.46 | 97 | 1007.9 |
| 20260506060953 | 7 | 295 | 8.0 | 9.7 | 0.43 | 0.43 | 0.43 | 97 | 1008.0 |
| 20260506060451 | 7 | 266 | 0.0 | 1.6 | 0.48 | 0.41 | 0.41 | 97 | 1007.8 |
| 20260506050920 | 8 | 290 | 0.0 | 0.0 | 0.30 | 0.20 | 0.20 | 97 | 1008.3 |
| 20260506050418 | 8 | 310 | 0.0 | 0.0 | 0.18 | 0.18 | 0.18 | 97 | 1008.3 |
| 20260506044908 | 8 | 282 | 0.0 | 0.0 | 0.30 | 0.13 | 0.13 | 97 | 1008.1 |
| 20260506044406 | 8 | 316 | 0.0 | 0.0 | 0.13 | 0.10 | 0.10 | 97 | 1008.5 |
| 20260506043903 | 8 | 354 | 0.0 | 0.0 | 0.30 | 0.10 | 0.10 | 97 | 1008.1 |
| 20260506043400 | 8 | 214 | 0.0 | 0.0 | 0.18 | 0.08 | 0.08 | 97 | 1008.3 |
| 20260506042858 | 8 | 296 | 1.6 | 4.8 | 0.00 | 0.05 | 0.05 | 97 | 1008.3 |
| 20260506042357 | 8 | 27 | 0.0 | 0.0 | 0.13 | 0.05 | 0.05 | 97 | 1008.0 |
| 20260506041855 | 8 | 22 | 0.0 | 0.0 | 0.13 | 0.05 | 0.05 | 97 | 1008.0 |
| 20260506041352 | 8 | 1 | 0.0 | 0.0 | 0.18 | 0.03 | 0.03 | 97 | 1008.1 |
| 20260506040849 | 8 | 297 | 0.0 | 0.0 | 0.18 | 0.03 | 0.03 | 97 | 1008.3 |
| 20260506040347 | 8 | 273 | 0.0 | 0.0 | 0.30 | 0.03 | 0.03 | 97 | 1008.3 |
| 20260506035843 | 8 | 298 | 0.0 | 0.0 | 0.13 | 4.19 | 4.19 | 97 | 1008.6 |
| 20260506035340 | 8 | 335 | 0.0 | 0.0 | 0.18 | 4.17 | 4.17 | 97 | 1008.5 |
| 20260506034837 | 8 | 302 | 0.0 | 0.0 | 0.30 | 4.17 | 4.17 | 97 | 1008.5 |
| 20260506034334 | 8 | 276 | 0.0 | 0.0 | 0.30 | 4.14 | 4.14 | 97 | 1008.7 |
| 20260506033831 | 8 | 272 | 0.0 | 0.0 | 0.36 | 4.11 | 4.11 | 97 | 1008.8 |
| 20260506033328 | 8 | 278 | 0.0 | 0.0 | 0.48 | 4.11 | 4.11 | 97 | 1008.7 |
| 20260506032825 | 8 | 290 | 0.0 | 0.0 | 0.48 | 4.09 | 4.09 | 97 | 1008.8 |
| 20260506032322 | 8 | 271 | 0.0 | 0.0 | 0.48 | 4.04 | 4.04 | 97 | 1009.0 |
| 20260506031819 | 8 | 278 | 0.0 | 0.0 | 0.30 | 4.01 | 4.01 | 97 | 1009.1 |
| 20260506031316 | 8 | 112 | 1.6 | 3.2 | 0.30 | 3.99 | 3.99 | 97 | 1009.2 |
| 20260506030814 | 8 | 359 | 0.0 | 1.6 | 0.30 | 3.96 | 3.96 | 97 | 1009.2 |
| 20260506030312 | 8 | 280 | 0.0 | 0.0 | 0.18 | 3.94 | 3.94 | 97 | 1009.1 |
| 20260506025808 | 8 | 270 | 0.0 | 0.0 | 0.13 | 3.91 | 3.91 | 97 | 1009.4 |
| 20260506025306 | 8 | 309 | 0.0 | 0.0 | 0.30 | 3.91 | 3.91 | 97 | 1009.3 |
| 20260506024802 | 8 | 257 | 0.0 | 0.0 | 0.30 | 3.89 | 3.89 | 97 | 1009.2 |
| 20260506024258 | 8 | 261 | 0.0 | 0.0 | 0.30 | 3.86 | 3.86 | 97 | 1009.5 |
| 20260506023754 | 8 | 318 | 4.8 | 9.7 | 0.30 | 3.84 | 3.84 | 96 | 1009.4 |
| 20260506023252 | 9 | 332 | 9.7 | 11.3 | 0.30 | 3.81 | 3.81 | 96 | 1009.2 |
| 20260506022748 | 9 | 9 | 1.6 | 4.8 | 0.18 | 3.78 | 3.78 | 97 | 1009.1 |
| 20260506022246 | 9 | 284 | 1.6 | 4.8 | 0.30 | 3.76 | 3.76 | 96 | 1009.3 |
| 20260506021744 | 10 | 345 | 0.0 | 0.0 | 0.61 | 3.76 | 3.76 | 97 | 1009.2 |
| 20260506021241 | 10 | 237 | 0.0 | 0.0 | 0.79 | 3.71 | 3.71 | 97 | 1009.2 |
| 20260506020737 | 10 | 253 | 0.0 | 0.0 | 0.61 | 3.63 | 3.63 | 97 | 1009.2 |
| 20260506020235 | 10 | 290 | 0.0 | 1.6 | 0.61 | 3.61 | 3.61 | 96 | 1008.9 |
| 20260506015733 | 10 | 5 | 0.0 | 1.6 | 0.48 | 3.56 | 3.56 | 96 | 1008.9 |
| 20260506015230 | 10 | 285 | 0.0 | 0.0 | 0.48 | 3.51 | 3.51 | 96 | 1008.9 |
| 20260506014727 | 10 | 297 | 0.0 | 0.0 | 0.48 | 3.48 | 3.48 | 96 | 1008.4 |
| 20260506014223 | 10 | 257 | 0.0 | 0.0 | 0.30 | 3.45 | 3.45 | 96 | 1008.7 |
| 20260506013721 | 10 | 251 | 0.0 | 0.0 | 0.48 | 3.43 | 3.43 | 96 | 1008.8 |
| 20260506013218 | 10 | 248 | 0.0 | 0.0 | 0.48 | 3.38 | 3.38 | 96 | 1008.7 |
| 20260506012714 | 10 | 283 | 0.0 | 0.0 | 0.43 | 3.35 | 3.35 | 96 | 1008.6 |
| 20260506012211 | 10 | 246 | 1.6 | 4.8 | 0.61 | 3.33 | 3.33 | 96 | 1008.4 |
| 20260506011708 | 10 | 254 | 0.0 | 0.0 | 0.48 | 3.28 | 3.28 | 96 | 1008.5 |
| 20260506011204 | 10 | 252 | 0.0 | 0.0 | 0.48 | 3.23 | 3.23 | 96 | 1008.5 |
| 20260506010703 | 10 | 305 | 3.2 | 8.0 | 0.61 | 3.20 | 3.20 | 96 | 1008.1 |
| 20260506010200 | 10 | 280 | 0.0 | 1.6 | 0.61 | 3.15 | 3.15 | 96 | 1008.3 |
| 20260506005657 | 10 | 258 | 0.0 | 0.0 | 0.89 | 3.10 | 3.10 | 96 | 1008.6 |
| 20260506005153 | 10 | 266 | 0.0 | 0.0 | 1.37 | 3.05 | 3.05 | 96 | 1008.5 |
| 20260506004649 | 10 | 308 | 1.6 | 3.2 | 1.55 | 2.95 | 2.95 | 96 | 1008.4 |
| 20260506004147 | 11 | 265 | 0.0 | 0.0 | 1.55 | 2.84 | 2.84 | 96 | 1008.3 |
| 20260506003643 | 11 | 261 | 0.0 | 0.0 | 1.37 | 2.69 | 2.69 | 96 | 1007.8 |
| 20260506003139 | 11 | 291 | 0.0 | 0.0 | 1.07 | 2.57 | 2.57 | 95 | 1007.6 |
| 20260506002635 | 12 | 255 | 0.0 | 0.0 | 1.02 | 2.46 | 2.46 | 96 | 1007.7 |
| 20260506002132 | 12 | 282 | 0.0 | 0.0 | 1.27 | 2.39 | 2.39 | 96 | 1007.7 |
| 20260506001627 | 12 | 254 | 0.0 | 0.0 | 1.07 | 2.29 | 2.29 | 96 | 1007.4 |
| 20260506001125 | 12 | 263 | 0.0 | 0.0 | 1.02 | 2.18 | 2.18 | 96 | 1007.6 |
| 20260506000622 | 12 | 255 | 0.0 | 0.0 | 0.89 | 2.11 | 2.11 | 95 | 1007.4 |
| 20260506000120 | 12 | 247 | 0.0 | 0.0 | 0.61 | 2.03 | 2.03 | 95 | 1007.5 |
| 20260505235618 | 12 | 244 | 0.0 | 0.0 | 0.30 | 1.96 | 1.96 | 95 | 1007.5 |
| 20260505235114 | 12 | 260 | 0.0 | 0.0 | 0.48 | 1.93 | 1.93 | 95 | 1007.5 |
| 20260505234612 | 12 | 258 | 0.0 | 0.0 | 0.48 | 1.91 | 1.91 | 95 | 1007.6 |
| 20260505234108 | 12 | 256 | 0.0 | 0.0 | 0.61 | 1.85 | 1.85 | 95 | 1007.7 |
| 20260505233606 | 12 | 256 | 0.0 | 0.0 | 0.79 | 1.83 | 1.83 | 95 | 1007.7 |
| 20260505233103 | 13 | 307 | 0.0 | 0.0 | 0.61 | 1.75 | 1.75 | 95 | 1008.0 |
| 20260505232601 | 13 | 303 | 0.0 | 0.0 | 0.89 | 1.73 | 1.73 | 95 | 1008.0 |
| 20260505232058 | 13 | 288 | 0.0 | 0.0 | 1.07 | 1.68 | 1.68 | 95 | 1008.1 |
| 20260505231554 | 13 | 253 | 0.0 | 0.0 | 0.66 | 1.57 | 1.57 | 95 | 1008.3 |
| 20260505231053 | 14 | 244 | 0.0 | 0.0 | 0.18 | 1.50 | 1.50 | 95 | 1007.9 |
| 20260505230551 | 14 | 255 | 0.0 | 0.0 | 0.13 | 1.47 | 1.47 | 95 | 1007.7 |
| 20260505230047 | 14 | 255 | 0.0 | 0.0 | 0.13 | 1.47 | 1.47 | 94 | 1007.8 |
| 20260505225544 | 14 | 260 | 0.0 | 0.0 | 0.18 | 1.45 | 1.45 | 94 | 1007.8 |
| 20260505225040 | 14 | 254 | 0.0 | 0.0 | 0.30 | 1.45 | 1.45 | 94 | 1007.5 |
| 20260505224537 | 14 | 257 | 0.0 | 0.0 | 0.30 | 1.45 | 1.45 | 94 | 1007.8 |
| 20260505224034 | 14 | 253 | 0.0 | 0.0 | 0.30 | 1.42 | 1.42 | 94 | 1008.0 |
| 20260505223531 | 14 | 254 | 0.0 | 0.0 | 0.48 | 1.40 | 1.40 | 94 | 1008.1 |
| 20260505223027 | 14 | 252 | 0.0 | 0.0 | 0.61 | 1.37 | 1.37 | 94 | 1008.5 |
| 20260505222524 | 14 | 254 | 0.0 | 0.0 | 0.61 | 1.32 | 1.32 | 94 | 1008.3 |
| 20260505222019 | 14 | 252 | 0.0 | 0.0 | 0.61 | 1.27 | 1.27 | 93 | 1008.0 |
| 20260505221517 | 14 | 253 | 0.0 | 0.0 | 0.61 | 1.22 | 1.22 | 93 | 1007.9 |
| 20260505221014 | 14 | 253 | 0.0 | 0.0 | 0.61 | 1.17 | 1.17 | 93 | 1008.1 |
| 20260505220511 | 14 | 254 | 0.0 | 0.0 | 1.07 | 1.12 | 1.12 | 93 | 1008.1 |
| 20260505220009 | 14 | 257 | 0.0 | 0.0 | 3.07 | 1.07 | 1.07 | 93 | 1008.4 |
| 20260505215507 | 14 | 241 | 0.0 | 0.0 | 3.53 | 0.97 | 0.97 | 92 | 1008.3 |
| 20260505215004 | 15 | 252 | 0.0 | 0.0 | 1.85 | 0.64 | 0.64 | 92 | 1008.1 |
| 20260505214502 | 15 | 250 | 0.0 | 0.0 | 0.30 | 0.38 | 0.38 | 92 | 1007.9 |
| 20260505213958 | 15 | 249 | 0.0 | 0.0 | 0.00 | 0.33 | 0.33 | 92 | 1007.7 |
| 20260505213456 | 15 | 249 | 0.0 | 0.0 | 0.00 | 0.33 | 0.33 | 91 | 1007.4 |
| 20260505212952 | 15 | 249 | 0.0 | 0.0 | 0.00 | 0.33 | 0.33 | 91 | 1007.3 |
| 20260505212449 | 15 | 249 | 0.0 | 0.0 | 0.00 | 0.33 | 0.33 | 91 | 1007.7 |
| 20260505211945 | 15 | 249 | 0.0 | 0.0 | 0.00 | 0.33 | 0.33 | 91 | 1007.4 |
| 20260505211443 | 15 | 249 | 0.0 | 0.0 | 0.00 | 0.33 | 0.33 | 91 | 1007.5 |
| 20260505210939 | 15 | 249 | 0.0 | 0.0 | 0.00 | 0.33 | 0.33 | 92 | 1007.6 |
| 20260505210437 | 15 | 238 | 0.0 | 0.0 | 0.00 | 0.33 | 0.33 | 92 | 1007.8 |
| 20260505205933 | 15 | 256 | 0.0 | 0.0 | 0.00 | 0.33 | 0.33 | 92 | 1007.7 |
| 20260505205432 | 15 | 252 | 0.0 | 0.0 | 0.00 | 0.33 | 0.33 | 92 | 1007.7 |
| 20260505204928 | 15 | 248 | 0.0 | 0.0 | 0.00 | 0.33 | 0.33 | 92 | 1007.8 |
| 20260505204426 | 15 | 254 | 0.0 | 0.0 | 0.00 | 0.33 | 0.33 | 92 | 1008.0 |
| 20260505203923 | 15 | 256 | 0.0 | 0.0 | 0.00 | 0.33 | 0.33 | 92 | 1008.0 |
| 20260505203420 | 15 | 256 | 0.0 | 0.0 | 0.00 | 0.33 | 0.33 | 92 | 1007.8 |
| 20260505202916 | 15 | 251 | 0.0 | 0.0 | 0.00 | 0.33 | 0.33 | 92 | 1008.0 |
| 20260505202412 | 14 | 271 | 0.0 | 0.0 | 0.00 | 0.33 | 0.33 | 92 | 1007.9 |
| 20260505201909 | 14 | 255 | 0.0 | 0.0 | 0.13 | 0.33 | 0.33 | 92 | 1008.0 |
| 20260505201406 | 14 | 255 | 0.0 | 0.0 | 0.48 | 0.33 | 0.33 | 92 | 1008.1 |
| 20260505200904 | 14 | 252 | 0.0 | 0.0 | 0.36 | 0.30 | 0.30 | 91 | 1008.3 |
| 20260505200401 | 14 | 248 | 0.0 | 0.0 | 0.00 | 0.25 | 0.25 | 91 | 1008.3 |
| 20260505195856 | 15 | 261 | 0.0 | 0.0 | 0.13 | 0.25 | 0.25 | 91 | 1008.5 |
| 20260505195354 | 15 | 256 | 0.0 | 0.0 | 0.13 | 0.25 | 0.25 | 91 | 1008.3 |
| 20260505194851 | 15 | 257 | 0.0 | 0.0 | 0.00 | 0.23 | 0.23 | 90 | 1008.3 |
| 20260505194348 | 15 | 245 | 0.0 | 0.0 | 0.30 | 0.23 | 0.23 | 90 | 1008.3 |
| 20260505193843 | 15 | 254 | 0.0 | 0.0 | 0.79 | 0.23 | 0.23 | 89 | 1008.7 |
| 20260505193341 | 15 | 259 | 0.0 | 0.0 | 0.79 | 0.18 | 0.18 | 87 | 1008.4 |
| 20260505192838 | 16 | 278 | 0.0 | 0.0 | 0.48 | 0.13 | 0.13 | 85 | 1008.4 |
| 20260505192337 | 16 | 294 | 0.0 | 0.0 | 0.00 | 0.05 | 0.05 | 83 | 1008.6 |
| 20260505191834 | 16 | 257 | 0.0 | 0.0 | 0.00 | 0.05 | 0.05 | 83 | 1008.3 |
| 20260505191333 | 16 | 265 | 0.0 | 0.0 | 0.00 | 0.05 | 0.05 | 82 | 1008.4 |
| 20260505190829 | 16 | 260 | 0.0 | 0.0 | 0.00 | 0.05 | 0.05 | 82 | 1008.1 |
| 20260505190324 | 16 | 268 | 0.0 | 0.0 | 0.00 | 0.05 | 0.05 | 82 | 1008.1 |
| 20260505185820 | 17 | 262 | 3.2 | 3.2 | 0.00 | 0.05 | 0.05 | 81 | 1008.1 |
| 20260505185317 | 17 | 255 | 0.0 | 0.0 | 0.00 | 0.05 | 0.05 | 81 | 1008.4 |